Billings, MT

1:03 AM MDT on April 28, 2017 (GMT -0600)
Billings Logan International

Weather History for KBIL - February, 2015

Change the Weather History Date:

Wednesday, February 25, 2015

  Actual Average Record
Temperature  
Mean Temperature 26 °F 32 °F  
Max Temperature 41 °F 43 °F 69 °F (1995)
Min Temperature 11 °F 22 °F -14 °F (2011)
Degree Days  
Heating Degree Days 39 32  
Month to date heating degree days 727 873  
Since 1 July heating degree days 4492 4869  
Cooling Degree Days 0 0  
Month to date cooling degree days 0 0  
Year to date cooling degree days 0 0  
Moisture  
Dew Point 16 °F    
Average Humidity 65    
Maximum Humidity 85    
Minimum Humidity 44    
Precipitation  
Precipitation 0.01 in 0.02 in 0.65 in (2000)
Month to date precipitation 0.19 0.42  
Year to date precipitation 1.28 0.90  
Snow  
Snow 0.20 in 0.20 in 6.60 in (2000)
Month to date snowfall 3.2 5.4  
Since 1 July snowfall 43.5 33.7  
Snow Depth T in    
Sea Level Pressure  
Sea Level Pressure 30.25 in    
Wind  
Wind Speed 16 mph (NNE)    
Max Wind Speed 39 mph    
Max Gust Speed 49 mph    
Visibility 7 miles    
Events Snow    
T = Trace of Precipitation, MM = Missing Value Source: NWS Daily Summary

Daily Weather History Graph

Daily Weather History Graph

Search for Another Location

Airport or City:

Trip Planner

Search our weather history database for the weather conditions in past years. The results will help you decide how hot, cold, wet, or windy it might be!

Date:

Astronomy

Feb. 25, 2015 Rise Set
Actual Time 7:00 AM MST 5:54 PM MST
Civil Twilight 6:30 AM MST 6:25 PM MST
Nautical Twilight 5:55 AM MST 6:59 PM MST
Astronomical Twilight 5:21 AM MST 7:34 PM MST
Moon 11:03 AM MST (2/25) 1:07 AM MST (2/25)
Length of Visible Light 11h 54m
Length of Day
10h 54m
Waxing Crescent, 51% of the Moon is Illuminated
Feb 25
Waxing Crescent
Mar 5
Full
Mar 13
Last Quarter
Mar 20
New
Mar 27
First Quarter

Hourly Weather History & Observations

Time (MST) Temp. Windchill Dew Point Humidity Pressure Visibility Wind Dir Wind Speed Gust Speed Precip Events Conditions
12:53 AM 41.0 °F 32.5 °F 25.0 °F 53% 29.95 in 10.0 mi NNW 17.3 mph 20.7 mph 0.00 in   Overcast
1:53 AM 39.2 °F 28.0 °F 24.8 °F 56% 29.91 in 10.0 mi NW 26.5 mph 32.2 mph N/A   Overcast
2:53 AM 37.9 °F 27.6 °F 27.0 °F 65% 29.97 in 10.0 mi NNW 20.7 mph 32.2 mph N/A   Overcast
3:53 AM 37.0 °F 24.9 °F 25.0 °F 62% 30.01 in 10.0 mi NNW 27.6 mph 36.8 mph 0.00 in Snow Light Ice Pellets
3:59 AM 34.0 °F 21.5 °F 27.0 °F 75% 29.99 in 7.0 mi North 24.2 mph 39.1 mph 0.00 in Snow Light Snow
4:04 AM 32.0 °F 20.1 °F 28.0 °F 85% 29.99 in 4.0 mi North 19.6 mph 39.1 mph 0.00 in   Light Hail
4:12 AM 32.0 °F 20.5 °F 28.0 °F 85% 30.00 in 7.0 mi North 18.4 mph - 0.00 in Snow Light Snow
4:31 AM 30.9 °F 20.2 °F 28.0 °F 89% 30.02 in 3.0 mi North 15.0 mph - 0.00 in Snow Light Snow
4:43 AM 30.9 °F 20.2 °F 28.0 °F 89% 30.02 in 3.0 mi North 15.0 mph - 0.00 in Snow Light Snow
4:53 AM 30.2 °F 18.9 °F 28.4 °F 93% 30.03 in 2.5 mi North 16.1 mph - N/A Snow Light Snow
5:04 AM 30.9 °F 20.2 °F 28.0 °F 89% 30.03 in 5.0 mi North 15.0 mph - 0.00 in Snow Light Snow
5:53 AM 30.9 °F 21.2 °F 25.0 °F 79% 30.10 in 10.0 mi North 12.7 mph - 0.00 in   Overcast
6:53 AM 30.9 °F 23.5 °F 25.0 °F 79% 30.12 in 10.0 mi NNW 8.1 mph - N/A   Overcast
7:53 AM 30.2 °F 22.6 °F 26.6 °F 86% 30.09 in 10.0 mi SW 8.1 mph - N/A   Overcast
8:53 AM 34.0 °F 29.8 °F 25.0 °F 70% 30.14 in 10.0 mi West 4.6 mph - N/A   Scattered Clouds
9:53 AM 35.1 °F 20.8 °F 24.1 °F 64% 30.15 in 10.0 mi NNW 35.7 mph 42.6 mph N/A   Scattered Clouds
10:53 AM 35.1 °F 22.0 °F 16.0 °F 46% 30.20 in 10.0 mi North 28.8 mph 36.8 mph N/A   Scattered Clouds
11:53 AM 28.9 °F 15.4 °F 12.9 °F 51% 30.30 in 10.0 mi North 21.9 mph 39.1 mph N/A   Mostly Cloudy
12:53 PM 24.1 °F 9.0 °F 12.9 °F 62% 30.34 in 10.0 mi NE 21.9 mph 28.8 mph N/A   Overcast
1:53 PM 23.0 °F 7.2 °F 8.6 °F 54% 30.27 in 10.0 mi NE 23.0 mph 33.4 mph N/A   Overcast
2:53 PM 19.9 °F 5.7 °F 8.1 °F 60% 30.42 in 10.0 mi NNE 16.1 mph - N/A   Overcast
3:53 PM 19.0 °F 5.6 °F 8.1 °F 62% 30.45 in 10.0 mi ENE 13.8 mph - N/A   Overcast
4:07 PM 18.0 °F 5.4 °F 9.0 °F 68% 30.33 in 9.0 mi ENE 11.5 mph - 0.00 in Snow Light Snow
4:53 PM 17.1 °F 3.0 °F 9.0 °F 71% 30.46 in 6.0 mi ENE 13.8 mph - 0.00 in Snow Light Snow
5:53 PM 16.0 °F 2.9 °F 8.1 °F 71% 30.48 in 10.0 mi East 11.5 mph - 0.00 in Snow Light Snow
6:53 PM 15.1 °F 1.8 °F 7.0 °F 70% 30.48 in 10.0 mi ENE 11.5 mph - 0.00 in   Mostly Cloudy
7:53 PM 14.0 °F 2.0 °F 6.1 °F 71% 30.49 in 10.0 mi East 9.2 mph - N/A   Mostly Cloudy
8:53 PM 12.9 °F 0.7 °F 7.0 °F 77% 30.49 in 6.0 mi East 9.2 mph - 0.00 in Snow Light Snow
9:06 PM 12.9 °F 1.6 °F 8.1 °F 81% 30.35 in 3.0 mi ENE 8.1 mph - 0.00 in Snow Light Snow
9:53 PM 12.9 °F 1.6 °F 8.1 °F 81% 30.50 in 5.0 mi ENE 8.1 mph - 0.01 in Snow Light Snow
10:03 PM 12.0 °F 1.5 °F 8.1 °F 84% 30.35 in 2.5 mi ENE 6.9 mph - 0.00 in Snow Light Snow
10:20 PM 12.0 °F 0.5 °F 8.1 °F 84% 30.36 in 4.0 mi NE 8.1 mph - 0.00 in Snow Light Snow
10:43 PM 12.0 °F 0.5 °F 7.0 °F 80% 30.36 in 2.0 mi NE 8.1 mph - 0.00 in Snow Light Snow
10:53 PM 12.0 °F -0.4 °F 8.1 °F 84% 30.50 in 2.0 mi ENE 9.2 mph - 0.00 in Snow Light Snow
11:05 PM 10.4 °F -2.4 °F 8.6 °F 92% 30.36 in 2.5 mi NE 9.2 mph - N/A Snow Light Snow
11:18 PM 10.9 °F -0.8 °F 7.0 °F 84% 30.36 in 3.0 mi ENE 8.1 mph - 0.00 in Snow Light Snow
11:53 PM 10.9 °F -0.8 °F 7.0 °F 84% 30.51 in 6.0 mi NE 8.1 mph - 0.00 in Snow Light Snow